TimeEDT,TemperatureF,Dew PointF,Humidity,Sea Level PressureIn,VisibilityMPH,Wind Direction,Wind SpeedMPH,Gust SpeedMPH,PrecipitationIn,Events,Conditions,WindDirDegrees,DateUTC
12:15 AM,62.6,53.6,72,30.09,10.0,North,20.7,-,N/A,,Overcast,10,2014-04-21 04:15:00
12:35 AM,62.6,53.6,72,30.10,10.0,North,20.7,-,N/A,,Overcast,10,2014-04-21 04:35:00
12:55 AM,62.6,53.6,72,30.09,10.0,NNE,20.7,29.9,N/A,,Overcast,20,2014-04-21 04:55:00
1:15 AM,62.6,53.6,72,30.09,10.0,NNE,18.4,-,N/A,,Overcast,30,2014-04-21 05:15:00
1:35 AM,60.8,53.6,77,30.09,10.0,NNE,18.4,24.2,N/A,,Overcast,30,2014-04-21 05:35:00
1:55 AM,60.8,53.6,77,30.08,10.0,NNE,20.7,24.2,N/A,,Overcast,20,2014-04-21 05:55:00
2:15 AM,60.8,53.6,77,30.08,10.0,North,13.8,17.3,N/A,,Scattered Clouds,10,2014-04-21 06:15:00
2:35 AM,60.8,53.6,77,30.08,10.0,NNE,15.0,-,N/A,,Clear,30,2014-04-21 06:35:00
2:55 AM,60.8,53.6,77,30.07,10.0,North,10.4,-,N/A,,Clear,10,2014-04-21 06:55:00
3:15 AM,60.8,51.8,72,30.07,10.0,North,11.5,-,N/A,,Clear,10,2014-04-21 07:15:00
3:35 AM,59.0,51.8,77,30.07,10.0,North,11.5,17.3,N/A,,Clear,10,2014-04-21 07:35:00
3:55 AM,59.0,51.8,77,30.07,10.0,NNE,15.0,18.4,N/A,,Clear,20,2014-04-21 07:55:00
4:15 AM,59.0,51.8,77,30.07,10.0,North,9.2,-,N/A,,Clear,10,2014-04-21 08:15:00
4:35 AM,59.0,51.8,77,30.07,10.0,North,6.9,-,N/A,,Clear,350,2014-04-21 08:35:00
4:55 AM,57.2,51.8,82,30.06,10.0,North,9.2,-,N/A,,Clear,360,2014-04-21 08:55:00
5:15 AM,57.2,50.0,77,30.07,10.0,North,8.1,-,N/A,,Clear,360,2014-04-21 09:15:00
5:35 AM,55.4,50.0,82,30.07,10.0,North,5.8,-,N/A,,Clear,10,2014-04-21 09:35:00
5:55 AM,55.4,50.0,82,30.06,10.0,North,5.8,-,N/A,,Clear,360,2014-04-21 09:55:00
6:15 AM,55.4,50.0,82,30.06,10.0,North,8.1,-,N/A,,Clear,10,2014-04-21 10:15:00
6:35 AM,55.4,50.0,82,30.06,10.0,North,8.1,-,N/A,,Clear,10,2014-04-21 10:35:00
6:55 AM,55.4,50.0,82,30.08,10.0,North,6.9,-,N/A,,Clear,10,2014-04-21 10:55:00
7:15 AM,55.4,50.0,82,30.09,10.0,North,9.2,-,N/A,,Clear,360,2014-04-21 11:15:00
7:35 AM,57.2,50.0,77,30.09,10.0,North,5.8,-,N/A,,Clear,350,2014-04-21 11:35:00
7:55 AM,57.2,50.0,77,30.10,10.0,North,9.2,-,N/A,,Clear,360,2014-04-21 11:55:00
8:15 AM,59.0,50.0,72,30.10,10.0,North,8.1,-,N/A,,Clear,360,2014-04-21 12:15:00
8:35 AM,59.0,50.0,72,30.11,10.0,North,12.7,17.3,N/A,,Clear,360,2014-04-21 12:35:00
8:55 AM,60.8,50.0,68,30.11,10.0,North,12.7,17.3,N/A,,Clear,10,2014-04-21 12:55:00
9:35 AM,60.8,51.8,72,30.10,10.0,North,10.4,16.1,N/A,,Clear,10,2014-04-21 13:35:00
9:55 AM,62.6,51.8,68,30.10,10.0,North,11.5,-,N/A,,Clear,360,2014-04-21 13:55:00
10:15 AM,64.4,51.8,64,30.10,10.0,North,9.2,16.1,N/A,,Clear,350,2014-04-21 14:15:00
10:35 AM,66.2,53.6,64,30.10,10.0,NNW,10.4,16.1,N/A,,Clear,340,2014-04-21 14:35:00
10:55 AM,66.2,53.6,64,30.10,10.0,North,10.4,17.3,N/A,,Clear,10,2014-04-21 14:55:00
11:15 AM,68.0,53.6,60,30.10,10.0,North,9.2,-,N/A,,Clear,350,2014-04-21 15:15:00
11:35 AM,69.8,53.6,56,30.09,10.0,NNW,11.5,16.1,N/A,,Clear,340,2014-04-21 15:35:00
11:55 AM,69.8,53.6,56,30.09,10.0,NNW,10.4,17.3,N/A,,Clear,340,2014-04-21 15:55:00
12:15 PM,69.8,53.6,56,30.08,10.0,NNW,12.7,-,N/A,,Clear,330,2014-04-21 16:15:00
12:35 PM,71.6,53.6,53,30.07,10.0,NW,12.7,17.3,N/A,,Clear,310,2014-04-21 16:35:00
12:55 PM,71.6,53.6,53,30.06,10.0,NNW,13.8,19.6,N/A,,Clear,330,2014-04-21 16:55:00
1:15 PM,71.6,53.6,53,30.06,10.0,NNW,11.5,17.3,N/A,,Clear,330,2014-04-21 17:15:00
1:35 PM,71.6,53.6,53,30.05,10.0,North,9.2,16.1,N/A,,Clear,350,2014-04-21 17:35:00
1:55 PM,73.4,53.6,50,30.04,10.0,NNE,6.9,16.1,N/A,,Clear,20,2014-04-21 17:55:00
2:15 PM,73.4,53.6,50,30.04,10.0,NNW,9.2,17.3,N/A,,Clear,330,2014-04-21 18:15:00
2:35 PM,73.4,51.8,47,30.02,10.0,NW,4.6,-,N/A,,Clear,320,2014-04-21 18:35:00
2:55 PM,73.4,51.8,47,30.02,10.0,North,9.2,-,N/A,,Clear,350,2014-04-21 18:55:00
3:15 PM,73.4,53.6,50,30.01,10.0,NNE,5.8,-,N/A,,Clear,20,2014-04-21 19:15:00
3:35 PM,75.2,53.6,47,30.00,7.0,North,5.8,-,N/A,,Clear,10,2014-04-21 19:35:00
3:55 PM,75.2,51.8,44,29.99,7.0,North,6.9,-,N/A,,Clear,350,2014-04-21 19:55:00
4:15 PM,75.2,51.8,44,29.98,7.0,NW,4.6,-,N/A,,Clear,310,2014-04-21 20:15:00
4:35 PM,75.2,51.8,44,29.97,7.0,NNW,4.6,-,N/A,,Clear,330,2014-04-21 20:35:00
4:55 PM,75.2,50.0,41,29.97,7.0,North,3.5,-,N/A,,Clear,360,2014-04-21 20:55:00
5:15 PM,77.0,50.0,39,29.97,5.0,West,3.5,-,N/A,,Haze,260,2014-04-21 21:15:00
5:35 PM,77.0,50.0,39,29.97,7.0,NW,5.8,-,N/A,,Clear,310,2014-04-21 21:35:00
5:55 PM,75.2,48.2,38,29.97,7.0,NNW,3.5,-,N/A,,Clear,330,2014-04-21 21:55:00
6:15 PM,77.0,50.0,39,29.97,7.0,NW,5.8,-,N/A,,Clear,320,2014-04-21 22:15:00
6:35 PM,77.0,48.2,36,29.96,7.0,NNW,4.6,-,N/A,,Clear,330,2014-04-21 22:35:00
6:55 PM,75.2,46.4,36,29.96,7.0,North,5.8,-,N/A,,Clear,350,2014-04-21 22:55:00
7:15 PM,73.4,46.4,38,29.97,7.0,NNW,3.5,-,N/A,,Clear,330,2014-04-21 23:15:00
7:35 PM,73.4,48.2,41,29.97,7.0,NNW,4.6,-,N/A,,Clear,330,2014-04-21 23:35:00
7:55 PM,68.0,51.8,56,29.97,7.0,NNW,3.5,-,N/A,,Clear,330,2014-04-21 23:55:00
8:15 PM,64.4,51.8,64,29.98,10.0,Calm,Calm,-,N/A,,Clear,0,2014-04-22 00:15:00
8:35 PM,62.6,51.8,68,29.98,10.0,Calm,Calm,-,N/A,,Clear,0,2014-04-22 00:35:00
8:55 PM,62.6,51.8,68,29.98,10.0,Calm,Calm,-,N/A,,Clear,0,2014-04-22 00:55:00
9:15 PM,60.8,51.8,72,29.98,7.0,Calm,Calm,-,N/A,,Clear,0,2014-04-22 01:15:00
9:35 PM,59.0,51.8,77,29.98,7.0,South,4.6,-,N/A,,Clear,190,2014-04-22 01:35:00
9:55 PM,59.0,53.6,82,29.98,10.0,Calm,Calm,-,N/A,,Clear,0,2014-04-22 01:55:00
10:15 PM,59.0,53.6,82,29.98,7.0,Calm,Calm,-,N/A,,Clear,0,2014-04-22 02:15:00
10:35 PM,57.2,53.6,88,29.98,10.0,Calm,Calm,-,N/A,,Clear,0,2014-04-22 02:35:00
10:55 PM,57.2,53.6,88,29.98,10.0,Calm,Calm,-,N/A,,Clear,0,2014-04-22 02:55:00
11:15 PM,57.2,55.4,94,29.98,10.0,SW,3.5,-,N/A,,Clear,230,2014-04-22 03:15:00
11:35 PM,57.2,55.4,94,29.98,10.0,SSW,3.5,-,N/A,,Clear,210,2014-04-22 03:35:00
11:55 PM,57.2,55.4,94,29.97,7.0,Calm,Calm,-,N/A,,Clear,0,2014-04-22 03:55:00